NOAA 16 DEB, 42405

Orbit data source: Space-Track

NOAA 16 DEB, 42405 is space debris in SSO originally from a launch on Thu, 21 Sep 2000 UTC launched from the Air Force Western Test Range (AFWTR). Debris objects in space refer to the collection of defunct objects orbiting the Earth. Examples of debris include non-operational satellites, rocket bodies, and fragments generated from explosions, collisions, or faulty payload assembly.

Loading next visibility...
Identifier
42405, 2000-055SZ
Orbit
SSO
Country
Flag of USUS
Related business
Manufacturer
Unknown
Mission
Spacecraft
Bus & Motor
Unknown
Mass
Unknown
Launch date (UTC)
2000-09-21 (26 years ago)
Launch vehicle
Unknown
Launch site
Air Force Western Test Range (AFWTR)
Object type
Payload
Rocket body
Debris
Shape & HBR
Unknown shape, 0.1 m
Radar Cross Section
Medium (>0.1 m² and <1 m²)

Expand to show TLE details & history
Last TLE update: 1 day ago

TLE from 1 day ago
0 NOAA 16 DEB
1 42405U 00055SZ  26254.65878380  .00004521  00000-0  10551-2 0  9995
2 42405  99.0159 152.5998 0020828 216.8366 143.1399 14.55154823546408
Epoch: 2026-09-11T15:48Z
TLE epoch observation values (Epoch: 2026-09-11T15:48:38.920Z)
Latitude
-0.00001°
Longitude
-75.24134°
Altitude
723.638 km
Speed
7.487 km/s
True Right ascension
10h 10m 23s
True Declination
0° 00' 00"
Sunlit
Object was in daylight at epoch
Visualization orbit readout
Latitude
Unknown
Longitude
Unknown
Altitude
Unknown
Speed
Unknown
Apparent Right ascension
Unknown
Apparent Declination
Unknown
Sunlit
N/A
Visualization observer readout
Local Sidereal Time
09:51:25
Azimuth
Unknown
Elevation
Unknown
Doppler factor
Unknown
Orbital elements
Apogee altitude
720.744 km
Perigee altitude
691.234 km
Semi-major axis
7,084.126 km
Eccentricity
0.00208
Inclination
99.0159°
RAAN
152.5998°
Arg. of periapsis
216.8366°
True anomaly
143.28277°
Mean anomaly
143.1399°
Eccentric anomaly
143.21137°
Mean motion
3.6401 °/min
Orbital period
98.9 mins
BSTAR
0.0010551
Loading maneuver chart data...
Computing Atmospheric mass density...
Loading historical data...
Loading historical data...
Loading historical data...
Loading historical data...
Loading historical data...
Loading historical data...
Loading historical data...

Documentation

Showing up to 5 results
|